This is the latest recevied weather packets stored in our database for station/object KC5DAQ-22. If no packets are shown the sender has not sent any weather packets the latest 10 day(s).
| Time | Temp. | Humidity | Pressure | Rain* | Wind** | Luminosity | Snow |
|---|---|---|---|---|---|---|---|
| 1778171462 | 21.11° C | 78% | 1014 hPa | 0 mm | - | 633 W/m² | - |
| 1778171404 | 21.11° C | 78% | 1013.8 hPa | 0 mm | - | 605 W/m² | - |
| 1778171343 | 21.11° C | 78% | 1013.8 hPa | 0 mm | - | 601 W/m² | - |
| 1778171283 | 21.11° C | 78% | 1013.8 hPa | 0 mm | - | 601 W/m² | - |
| 1778171223 | 21.11° C | 77% | 1013.8 hPa | 0 mm | - | 603 W/m² | - |
| 1778171163 | 21.11° C | 78% | 1013.8 hPa | 0 mm | - | 589 W/m² | - |
| 1778171104 | 21.11° C | 78% | 1013.9 hPa | 0 mm | - | 556 W/m² | - |
| 1778171042 | 21.11° C | 78% | 1013.9 hPa | 0 mm | - | 561 W/m² | - |
| 1778170983 | 20.56° C | 78% | 1013.8 hPa | 0 mm | - | 582 W/m² | - |
| 1778170923 | 20.56° C | 78% | 1013.7 hPa | 0 mm | - | 413 W/m² | - |
| 1778170863 | 20.56° C | 78% | 1013.6 hPa | 0 mm | - | 540 W/m² | - |
| 1778170804 | 20.56° C | 78% | 1013.7 hPa | 0 mm | - | 696 W/m² | - |
| 1778170743 | 20.56° C | 78% | 1013.6 hPa | 0 mm | - | 707 W/m² | - |
| 1778170683 | 20.56° C | 79% | 1013.6 hPa | 0 mm | - | 688 W/m² | - |
| 1778170624 | 20.56° C | 79% | 1013.6 hPa | 0 mm | - | 677 W/m² | - |
| 1778170562 | 20.56° C | 78% | 1013.6 hPa | 0 mm | - | 681 W/m² | - |
| 1778170503 | 20.56° C | 78% | 1013.6 hPa | 0 mm | - | 682 W/m² | - |
| 1778170444 | 20.56° C | 79% | 1013.6 hPa | 0 mm | - | 608 W/m² | - |
| 1778170382 | 20.56° C | 78% | 1013.7 hPa | 0 mm | - | 550 W/m² | - |
| 1778170322 | 20.56° C | 79% | 1013.7 hPa | 0 mm | - | 594 W/m² | - |
| 1778170262 | 20.56° C | 79% | 1013.8 hPa | 0 mm | - | 684 W/m² | - |
| 1778170202 | 20.56° C | 79% | 1013.8 hPa | 0 mm | - | 684 W/m² | - |
| 1778170143 | 20.56° C | 80% | 1013.8 hPa | 0 mm | - | 666 W/m² | - |
| 1778170084 | 20.56° C | 80% | 1013.9 hPa | 0 mm | - | 651 W/m² | - |
| 1778170023 | 20.56° C | 80% | 1013.9 hPa | 0 mm | - | 615 W/m² | - |
* Rain latest hour (hover to see other rain measurements)
** Current wind speed in m/s (hover to see current wind gust speed)